(248106) = 2004 RP105

Discovered at Palomar on 2004-09-08 by NEAT.

Orbit

Orbit type: Main Belt

Note: WebGL enabled browser required.

epoch2024-03-31.0
epoch JD2460400.5
perihelion date2023-03-07.55165
perihelion JD2460011.05165
argument of perihelion (°)202.06348
ascending node (°)203.99951
inclination (°)5.14101
eccentricity0.2301949
perihelion distance (AU)1.8196900
Tisserand w.r.t. Jupiter3.5
ΔV w.r.t. Earth (km/sec)8.5
semimajor axis (AU)2.3638322
mean anomaly (°)105.61576
mean daily motion (°/day)0.27119330
aphelion distance (AU)2.908
period (years)3.63
P-vector [x]0.69448164
P-vector [y]0.67280413
P-vector [z]0.25500952
Q-vector [x]-0.71858678
Q-vector [y]0.66651912
Q-vector [z]0.19845733
absolute magnitude17.14
phase slope0.15
uncertainty0
referenceMPEC 2024-E123
observations used585
oppositions14
arc length (days)8065
first opposition used2002
last opposition used2024
residual rms (arc-secs)0.75
perturbers coarse indicatorM-v
perturbers precise indicator003Ek
first observation date used2002-02-06.0
last observation date used2024-03-07.0
computer nameMPCLINUX
JD of orbit computation2456847.698488
perihelion JD uncertainty (days)1.4059E-04
argument of perihelion uncertainty (°)6.5425E-05
ascending node uncertainty (°)6.0162E-05
inclination uncertainty (°)6.7995E-06
eccentricity uncertainty 6.0803E-08
perihelion distance uncertainty (AU)1.4027E-07
Minimum Orbit Intersection Distances (in AU)
for orbit epoch: 2460400.5, reference: E2024-GD4
Mercury1.50101
Venus1.0967
Earth0.83038
Mars0.34747
Jupiter2.48879
Saturn6.85162
Uranus15.7368
Neptune27.7283

Observations

607 total observations over interval: 2002 02 06.41178 – 2024 03 07.376040
These data are available for download (format description).

Date (UT) J2000 RA J2000 Dec Magn Location Ref
2002 02 06.41178 10 03 28.67 +03 54 55.8 20.4   644 – Palomar Mountain/NEAT MPS 118433
2002 02 06.42235 10 03 28.04 +03 54 59.9 20.3   644 – Palomar Mountain/NEAT MPS 118433
2002 02 06.43279 10 03 27.41 +03 55 03.6 20.1   644 – Palomar Mountain/NEAT MPS 118433
2002 02 20.31813 09 49 47.07 +05 28 39.5 19.5 R 699 – Lowell Observatory-LONEOS MPS 118433
2002 02 20.33055 09 49 46.26 +05 28 44.6   699 – Lowell Observatory-LONEOS MPS 118433
2002 02 20.34303 09 49 45.44 +05 28 49.5   699 – Lowell Observatory-LONEOS MPS 118433
2002 02 20.35547 09 49 44.84 +05 28 56.2   699 – Lowell Observatory-LONEOS MPS 118433
2004 09 08.36609 00 31 04.28 +08 15 26.7 18.7   644 – Palomar Mountain/NEAT MPS 113127
2004 09 08.38801 00 31 03.63 +08 15 19.7 18.8   644 – Palomar Mountain/NEAT MPS 113127
2004 09 08.41012 00 31 02.97 +08 15 12.3 19.1   644 – Palomar Mountain/NEAT MPS 113127
2004 09 10.25387 00 30 11.84 +08 04 43.9 20.2   704 – Lincoln Laboratory ETS, New Mexico MPS 113127
2004 09 10.26581 00 30 11.44 +08 04 39.4 19.9   704 – Lincoln Laboratory ETS, New Mexico MPS 113127
2004 09 10.27807 00 30 11.08 +08 04 35.5 19.5   704 – Lincoln Laboratory ETS, New Mexico MPS 113127
2004 09 10.28988 00 30 10.64 +08 04 31.1 19.4   704 – Lincoln Laboratory ETS, New Mexico MPS 113127
2004 09 13.23688 00 28 37.92 +07 45 53.8 19.1   704 – Lincoln Laboratory ETS, New Mexico MPS 113127
2004 09 13.24843 00 28 37.46 +07 45 48.6 20.1   704 – Lincoln Laboratory ETS, New Mexico MPS 113127
2004 09 13.25999 00 28 36.98 +07 45 44.8 19.4   704 – Lincoln Laboratory ETS, New Mexico MPS 113127
2004 09 13.27153 00 28 36.66 +07 45 39.8 19.6   704 – Lincoln Laboratory ETS, New Mexico MPS 113127
2004 09 13.28308 00 28 36.20 +07 45 35.5 19.3   704 – Lincoln Laboratory ETS, New Mexico MPS 113127
2004 09 13.42595 00 28 31.00 +07 44 37.1 18.5 R 699 – Lowell Observatory-LONEOS MPS 120523
2004 09 13.44055 00 28 30.44 +07 44 31.2   699 – Lowell Observatory-LONEOS MPS 120523
2004 09 13.45513 00 28 29.91 +07 44 25.2   699 – Lowell Observatory-LONEOS MPS 120523
2004 09 13.46972 00 28 29.38 +07 44 19.4   699 – Lowell Observatory-LONEOS MPS 120523
2004 09 18.30474 00 25 31.89 +07 08 54.7 19.3   704 – Lincoln Laboratory ETS, New Mexico MPS 114476
2004 09 18.31733 00 25 31.34 +07 08 49.0 20.0   704 – Lincoln Laboratory ETS, New Mexico MPS 114476
2004 09 18.32983 00 25 30.80 +07 08 43.0 20.3   704 – Lincoln Laboratory ETS, New Mexico MPS 114476
2004 09 18.34239 00 25 30.27 +07 08 37.1 19.7   704 – Lincoln Laboratory ETS, New Mexico MPS 114476
2004 09 18.35481 00 25 29.74 +07 08 31.2 20.2   704 – Lincoln Laboratory ETS, New Mexico MPS 114476
2004 09 22.28525 00 22 48.20 +06 36 03.2 18.7   704 – Lincoln Laboratory ETS, New Mexico MPS 114476
2004 09 22.29742 00 22 47.63 +06 35 56.8 19.1   704 – Lincoln Laboratory ETS, New Mexico MPS 114476
2004 09 22.30956 00 22 47.05 +06 35 50.5 19.2   704 – Lincoln Laboratory ETS, New Mexico MPS 114476
2004 09 22.32169 00 22 46.51 +06 35 44.5 19.6   704 – Lincoln Laboratory ETS, New Mexico MPS 114476
2004 09 22.33384 00 22 45.94 +06 35 37.8 19.8   704 – Lincoln Laboratory ETS, New Mexico MPS 114476
2004 09 24.28643 00 21 21.73 +06 18 29.8 19.1   704 – Lincoln Laboratory ETS, New Mexico MPS 114476
2004 09 24.29866 00 21 21.17 +06 18 22.5 19.3   704 – Lincoln Laboratory ETS, New Mexico MPS 114476
2004 09 24.31083 00 21 20.58 +06 18 15.8 18.8   704 – Lincoln Laboratory ETS, New Mexico MPS 114476
2004 09 24.33524 00 21 19.46 +06 18 03.1 19.0   704 – Lincoln Laboratory ETS, New Mexico MPS 114476
2004 10 05.22811 00 13 15.27 +04 34 49.2 18.4 R 699 – Lowell Observatory-LONEOS MPS 115802
2004 10 05.24839 00 13 14.33 +04 34 37.7   699 – Lowell Observatory-LONEOS MPS 115802
2004 10 05.26866 00 13 13.39 +04 34 25.9   699 – Lowell Observatory-LONEOS MPS 115802
2004 10 05.28896 00 13 12.45 +04 34 13.5   699 – Lowell Observatory-LONEOS MPS 115802
2004 10 07.27879 00 11 47.31 +04 14 50.8 18.7   704 – Lincoln Laboratory ETS, New Mexico MPS 115802
2004 10 07.29010 00 11 46.81 +04 14 44.3 19.3   704 – Lincoln Laboratory ETS, New Mexico MPS 115802
2004 10 07.30123 00 11 46.22 +04 14 38.7 19.8   704 – Lincoln Laboratory ETS, New Mexico MPS 115802
2004 10 07.32348 00 11 45.27 +04 14 24.5 19.7   704 – Lincoln Laboratory ETS, New Mexico MPS 115802
2004 10 09.19699 00 10 28.19 +03 56 15.3 18.4   704 – Lincoln Laboratory ETS, New Mexico MPS 116680
2004 10 09.20770 00 10 27.72 +03 56 08.8 19.1   704 – Lincoln Laboratory ETS, New Mexico MPS 116680
2004 10 09.21842 00 10 27.25 +03 56 02.8 19.2   704 – Lincoln Laboratory ETS, New Mexico MPS 116680
2004 10 09.22914 00 10 26.82 +03 55 57.0 19.3   704 – Lincoln Laboratory ETS, New Mexico MPS 116680
2004 10 09.23985 00 10 26.36 +03 55 50.4 19.6   704 – Lincoln Laboratory ETS, New Mexico MPS 116680
2004 10 20.18784 00 04 15.16 +02 16 44.8 19.3 R 683 – Goodricke-Pigott Observatory, Tucson MPS 117639
2004 10 20.20121 00 04 14.71 +02 16 37.9 20.1 R 683 – Goodricke-Pigott Observatory, Tucson MPS 117639
2004 10 20.21459 00 04 14.43 +02 16 30.2 20.4 R 683 – Goodricke-Pigott Observatory, Tucson MPS 117639
2004 10 23.17885 00 03 06.05 +01 53 05.9 20.2 R 683 – Goodricke-Pigott Observatory, Tucson MPS 118433
2004 10 23.19222 00 03 05.79 +01 53 00.0 20.6 R 683 – Goodricke-Pigott Observatory, Tucson MPS 118433
2004 10 23.20561 00 03 05.35 +01 52 54.3 20.8 R 683 – Goodricke-Pigott Observatory, Tucson MPS 118433
2006 04 07.30143 12 14 43.94 -03 49 46.6 22.1 V G96 – Mt. Lemmon Survey MPS 168818
2006 04 07.30620 12 14 43.69 -03 49 44.7 21.2 V G96 – Mt. Lemmon Survey MPS 168818
2006 04 07.31097 12 14 43.44 -03 49 42.7 21.2 V G96 – Mt. Lemmon Survey MPS 168818
2006 04 07.31583 12 14 43.22 -03 49 40.7 22.0 V G96 – Mt. Lemmon Survey MPS 168818
2008 11 30.32000 07 17 19.17 +13 45 13.3 19.5   704 – Lincoln Laboratory ETS, New Mexico MPS 267495
2008 11 30.33252 07 17 18.87 +13 45 10.1 19.2   704 – Lincoln Laboratory ETS, New Mexico MPS 267495
2008 11 30.34500 07 17 18.62 +13 45 07.0 19.5   704 – Lincoln Laboratory ETS, New Mexico MPS 267495
2008 11 30.37005 07 17 18.04 +13 45 01.6 19.9   704 – Lincoln Laboratory ETS, New Mexico MPS 267495
2009 01 18.26872 06 35 14.45 +13 32 37.7 19.6   704 – Lincoln Laboratory ETS, New Mexico MPS 272491
2009 01 18.28202 06 35 13.66 +13 32 41.0 19.0   704 – Lincoln Laboratory ETS, New Mexico MPS 272491
2009 01 18.29498 06 35 13.07 +13 32 43.5 19.2   704 – Lincoln Laboratory ETS, New Mexico MPS 272491
2009 01 20.26987 06 33 44.91 +13 38 30.0 19.5   704 – Lincoln Laboratory ETS, New Mexico MPS 272491
2009 01 20.28269 06 33 44.42 +13 38 30.5 19.7   704 – Lincoln Laboratory ETS, New Mexico MPS 272491
2009 01 20.30907 06 33 43.30 +13 38 36.6 19.0   704 – Lincoln Laboratory ETS, New Mexico MPS 272491
2009 01 20.32212 06 33 42.73 +13 38 38.6 19.1   704 – Lincoln Laboratory ETS, New Mexico MPS 272491
2010 01 31.107390 14 38 47.32 -15 41 51.7   C51 – WISE MPS 341758
2010 01 31.504431 14 39 05.23 -15 42 52.1   C51 – WISE MPS 341758
2010 01 31.636735 14 39 11.038 -15 43 11.71   C51 – WISE MPS 926847
2010 01 31.702950 14 39 13.88 -15 43 19.4   C51 – WISE MPS 341758
2010 01 31.967559 14 39 25.714 -15 43 59.38   C51 – WISE MPS 926847
2010 02 01.099863 14 39 31.49 -15 44 17.5   C51 – WISE MPS 341758
2010 02 01.232168 14 39 37.42 -15 44 35.3   C51 – WISE MPS 341758
2010 04 26.29302 14 23 52.22 -12 24 45.6 20.7 V G96 – Mt. Lemmon Survey MPS 323430
2010 04 26.29947 14 23 51.82 -12 24 44.2 20.7 V G96 – Mt. Lemmon Survey MPS 323430
2010 04 26.30598 14 23 51.50 -12 24 41.0 20.1 V G96 – Mt. Lemmon Survey MPS 323430
2010 04 26.31248 14 23 51.10 -12 24 38.5 20.0 V G96 – Mt. Lemmon Survey MPS 323430
2011 08 28.48600 20 28 47.02 -10 42 09.5 19.5 V E12 – Siding Spring Survey MPS 390414
2011 08 28.49725 20 28 46.45 -10 42 13.7 19.6 V E12 – Siding Spring Survey MPS 390414
2011 08 28.50861 20 28 45.94 -10 42 17.6 20.7 V E12 – Siding Spring Survey MPS 390414
2011 08 28.51999 20 28 45.51 -10 42 21.3 20.6 V E12 – Siding Spring Survey MPS 390414
2011 09 29.13426 20 22 47.02 -13 03 00.6 20.2 V G96 – Mt. Lemmon Survey MPS 394113
2011 09 29.14000 20 22 47.13 -13 03 01.9 20.4 V G96 – Mt. Lemmon Survey MPS 394113
2011 09 29.14572 20 22 47.24 -13 03 02.4 20.3 V G96 – Mt. Lemmon Survey MPS 394113
